Miscellaneous Local Product
Issued by NWS Hastings, NE

Home | Current Version | Previous Version | Text Only | Print | Product List | Glossary On
Versions: 1 2 3 4 5 6 7 8 9 10 11 12 13 14 15 16 17 18 19 20 21 22 23 24 25 26 27 28 29 30 31 32 33 34 35 36 37 38 39 40 41 42 43 44 45 46 47 48 49 50
000
AXUS43 KGID 230802
MISGRI

GID CWA HOURLY WEATHER ROUNDUP
NATIONAL WEATHER SERVICE HASTINGS NE
200 AM CST SUN NOV 23 2014

NOTE: "FAIR" INDICATES FEW OR NO CLOUDS BELOW 12,000 FEET WITH NO
SIGNIFICANT WEATHER AND/OR OBSTRUCTIONS TO VISIBILITY.

...SOUTH CENTRAL NEBRASKA...

CITY           SKY/WX    TMP DP  RH WIND       PRES   REMARKS
GRAND ISLAND   MOCLDY    52  49  89 S7        29.48F
HASTINGS       CLOUDY    53  48  83 S6        29.49S
KEARNEY        MOCLDY    45  41  87 SE9       29.48F
ORD            CLOUDY    43  35  73 S5        29.43F
YORK           CLOUDY    54  50  87 SW9       29.50R
AURORA         CLOUDY    53  50  90 S8        29.49F
LEXINGTON      CLOUDY    40  33  75 W5        29.46S
HOLDREGE       CLOUDY    46  44  93 S3        29.46F FOG
HEBRON         CLOUDY    55  49  80 S12       29.50F

...NEBRASKA PANHANDLE...

CITY           SKY/WX    TMP DP  RH WIND       PRES   REMARKS
CHADRON        CLOUDY    39  28  64 W13       29.59R WCI  31
ALLIANCE       CLOUDY    40  24  53 NW26G37   29.58R WCI  29
SCOTTSBLUFF    CLOUDY    40  28  62 NW16      29.63R WCI  31
SIDNEY         CLOUDY    46  28  49 NW22G28   29.59R

...WESTERN AND NORTH CENTRAL NEBRASKA...

CITY           SKY/WX    TMP DP  RH WIND       PRES   REMARKS
VALENTINE      PTCLDY    43  34  70 W18G24    29.45R
AINSWORTH      PTCLDY    40  35  83 SW7       29.44R
ONEILL         CLOUDY    46  36  69 S7        29.41F
BROKEN BOW     CLOUDY    47  29  49 W9        29.43F
IMPERIAL       CLOUDY    44  19  36 NW10      29.52R
NORTH PLATTE   CLOUDY    34  25  69 NW5       29.48F WCI  30
MCCOOK         CLOUDY    44  34  67 SW8       29.45F

...EASTERN NEBRASKA...

CITY           SKY/WX    TMP DP  RH WIND       PRES   REMARKS
NORFOLK        CLOUDY    52  50  93 S12       29.44F FOG
SO SIOUX CITY  CLOUDY    54  51  90 S12       29.47F
TEKAMAH        CLOUDY    54  51  90 S10       29.50F
COLUMBUS       CLOUDY    54  48  82 S8        29.50F
ALBION         CLOUDY    49  47  91 S3        29.44F FOG
OMAHA EPPLEY   CLOUDY    53  52  96 SE10      29.52F
OFFUTT AFB     CLOUDY    55  52  88 S13       29.52F
MILLARD        CLOUDY    55  52  89 SE8       29.51F
LINCOLN        CLOUDY    56  51  84 S12       29.50F
NEBRASKA CITY  CLOUDY    54  52  92 S18       29.55F
BEATRICE       CLOUDY    55  50  85 S13       29.52F
FALLS CITY     CLOUDY    54  51  90 S8        29.58F

...NORTHERN KANSAS...

CITY           SKY/WX    TMP DP  RH WIND       PRES   REMARKS
GOODLAND       CLOUDY    40  23  50 W9        29.45F WCI  34
HILL CITY      CLOUDY    51  47  86 CALM      29.47F
NORTON         CLOUDY    48  43  81 E3        29.44F
PHILLIPSBURG   CLOUDY    55  50  82 SE6       29.48F
SMITH CENTER   MOCLDY    52  48  87 S8        29.49F
BELOIT         CLOUDY    55  50  82 CALM      29.50F
HAYS           CLOUDY    54  45  71 S13       29.47F
RUSSELL        CLOUDY    54  49  83 S20       29.46F
CONCORDIA      MOCLDY    53  50  89 CALM      29.51F
SALINA         CLOUDY    55  51  86 S13G25    29.51F
TOPEKA         LGT RAIN  56  54  93 SE7       29.61F FOG



USA.gov is the U.S. government's official web portal to all federal, state and local government web resources and services.